RH
55 37 28 42 73 100 91 93 92 100 100 100 100 100 100 100 100 93 98 100 100 100 100 100 90 65 64 66 55 54 70 100 100 95 97 100 100 100 100 100 100 100 100
71 65 45 36 47 72 97 100 93 97 98 100 100 99 100 100 100 100 100 99 99 94 100 100 92 77 68 64 64 63 55 56 68 81 85 90 94 94 99 100 100 100 100
52 75 78 61 42 52 72 100 100 100 99 100 92 87 93 100 100 100 82 90 100 100 100 100 99 89 80 76 77 72 65 62 60 58 61 66 68 77 89 83 82 85 89
48 54 75 84 73 54 57 72 97 100 100 100 100 100 97 99 100 99 100 100 99 99 100 100 100 99 97 97 83 83 74 69 61 55 58 56 60 62 59 71 70 69 64
62 54 58 76 72 68 73 63 70 91 93 96 100 100 100 87 93 87 95 100 100 100 100 100 100 100 100 98 88 89 88 81 69 54 54 52 48 43 46 51 58 52 48
92 66 54 65 77 68 68 61 50 77 95 99 94 100 100 100 100 100 100 100 99 99 100 100 100 100 100 100 98 95 91 89 76 64 56 52 49 47 41 39 40 37 37
98 75 69 59 65 70 62 62 57 50 54 93 97 98 100 100 100 100 98 99 97 92 100 90 83 95 100 96 89 99 82 67 59 57 51 49 45 46 45 38 34 32 29
88 83 93 71 62 68 60 58 57 57 56 49 81 100 100 100 100 99 98 93 92 96 100 100 95 86 89 85 74 68 55 56 54 54 51 45 46 46 42 39 33 32 29
85 100 98 72 70 82 74 58 53 58 58 57 47 59 93 100 100 100 100 99 100 100 100 91 96 93 77 67 65 60 50 42 40 42 45 48 41 34 32 30 27 25 23
92 99 100 94 84 80 71 70 57 56 56 55 53 46 48 88 95 100 100 97 92 98 98 98 84 71 60 61 50 43 44 46 50 53 43 36 31 27 24 23 23 22 20
86 96 100 100 89 94 81 70 61 57 62 51 52 50 39 40 69 83 96 100 91 96 96 92 85 74 70 52 55 60 52 53 52 43 38 37 27 22 22 20 19 17 15
99 100 99 100 90 90 93 79 68 61 59 61 45 44 46 35 31 49 72 94 98 97 93 87 81 84 83 66 67 62 58 60 52 49 41 34 27 20 16 15 15 14 12
100 100 99 100 87 87 87 76 70 64 58 54 53 40 41 45 35 29 46 68 90 99 92 89 87 87 83 76 73 66 58 58 61 50 37 22 19 15 13 12 11 11 12
100 100 100 96 81 83 87 82 72 65 55 50 50 42 34 42 38 29 28 56 74 85 91 89 88 85 83 80 77 74 70 72 61 46 26 21 18 12 9 8 7 7 8
100 98 96 83 75 76 80 89 86 71 58 51 46 44 32 36 35 33 30 47 74 87 93 87 90 90 85 87 96 91 83 69 57 37 25 20 14 7 6 6 5 6 6
95 89 88 82 78 80 84 86 81 72 64 44 40 37 31 36 31 29 32 42 65 81 89 91 88 86 90 96 97 89 75 64 50 40 39 28 20 10 6 5 4 5 5
92 86 85 88 86 83 87 70 72 73 60 39 33 33 29 31 30 30 44 52 68 78 84 91 89 92 99 94 87 77 71 58 51 51 45 34 28 16 9 6 6 6 7
81 86 97 97 89 86 85 70 62 53 40 33 29 30 28 30 33 37 61 71 78 82 84 86 88 90 90 88 78 78 70 63 57 58 46 39 36 27 20 13 10 10 12
87 97 98 94 94 87 60 54 41 32 31 26 28 27 30 32 39 52 67 85 94 95 93 94 92 90 84 88 86 78 72 75 68 59 50 45 38 37 34 35 33 25 22
97 97 94 85 83 65 50 42 29 29 26 25 26 26 35 40 58 72 72 86 94 97 100 98 95 88 98 91 88 75 83 80 69 61 52 49 46 46 46 45 48 51 49
92 84 80 80 62 50 30 26 25 25 23 29 24 32 36 46 71 80 84 93 100 100 100 98 97 97 100 90 84 89 88 83 72 65 62 59 57 55 54 55 54 56 59
82 77 72 51 43 26 24 21 23 23 27 28 28 38 44 61 74 88 95 100 100 100 100 100 96 98 95 90 96 93 90 84 76 66 68 63 61 64 65 66 67 65 62
66 63 45 36 24 21 19 20 22 24 30 28 42 48 61 76 93 99 100 100 100 100 100 100 100 99 76 94 97 95 96 90 86 76 71 72 72 69 72 74 74 72 71
32 33 32 22 20 18 18 19 23 26 29 33 50 61 73 97 100 100 95 100 100 100 100 99 99 79 93 100 100 96 100 100 88 87 81 87 88 83 78 79 79 79 77
28 23 20 19 17 16 17 19 24 25 27 41 54 70 84 100 100 100 100 100 100 100 98 97 86 89 100 100 100 100 100 98 93 95 94 93 94 93 90 82 77 80 80
17 17 17 16 15 17 20 19 23 24 26 49 60 79 91 100 100 100 100 100 100 100 98 95 85 88 100 100 100 100 100 100 92 91 94 91 91 89 86 84 80 76 77
Wind_Speed
33 30 29 36 42 48 47 55 54 55 53 53 54 56 58 59 61 59 58 58 58 58 60 59 59 58 56 55 50 49 54 54 55 54 63 67 71 75 78 80 81 80 78
35 35 33 31 39 46 52 55 56 59 60 59 60 60 58 58 58 57 56 59 60 60 59 61 61 61 58 57 56 55 52 54 59 61 63 64 69 77 79 82 85 88 89
41 39 38 34 33 41 50 56 59 62 63 64 65 64 64 62 61 61 60 59 60 59 58 61 62 63 63 62 62 59 59 57 59 61 63 66 70 73 76 83 88 91 92
45 45 36 40 38 36 42 53 60 65 64 66 66 65 65 64 64 63 63 62 60 60 60 60 62 65 65 65 64 64 65 65 66 68 69 71 72 74 77 80 84 87 91
51 46 42 37 42 42 38 48 55 62 65 71 71 69 68 68 68 66 66 66 62 59 60 62 63 64 66 68 68 68 67 69 70 70 71 72 74 75 78 82 87 89 90
55 51 46 44 40 41 47 43 49 59 65 67 68 72 70 69 68 69 66 66 64 62 61 62 64 64 65 65 68 69 71 74 74 75 73 74 73 75 78 78 81 85 89
57 56 51 46 44 43 44 47 47 48 60 69 70 70 70 74 72 71 71 68 67 65 66 70 68 67 68 70 72 72 75 79 80 80 78 77 77 78 80 80 82 84 87
56 61 57 51 45 47 46 45 46 47 49 60 71 74 73 72 74 78 76 74 70 69 67 69 69 71 72 74 76 79 80 79 76 77 77 77 77 79 81 83 84 86 89
59 63 58 56 50 52 49 48 47 47 50 53 58 71 78 79 79 76 75 73 72 70 70 71 73 75 77 77 76 77 75 74 74 75 75 76 78 80 82 83 87 89 91
64 64 64 62 56 54 50 49 50 48 49 52 56 60 71 82 82 81 80 78 75 73 73 74 76 75 72 70 68 69 69 71 73 75 76 78 80 81 84 87 89 88 88
66 67 66 66 62 60 56 52 52 51 51 53 56 59 64 73 83 85 83 81 79 78 77 76 76 71 66 65 66 66 68 70 72 75 77 81 84 85 88 88 90 93 92
67 69 67 66 63 62 57 54 53 53 53 54 57 59 61 64 71 79 84 83 81 79 78 77 73 69 67 66 66 67 68 69 72 75 81 84 86 87 87 85 87 89 88
68 67 67 65 60 58 56 55 54 54 54 55 56 57 56 59 62 67 76 81 80 79 77 74 71 69 68 66 66 67 69 69 74 79 85 82 81 80 78 79 81 79 79
67 68 64 60 58 57 57 57 56 56 55 54 56 56 54 54 57 58 62 69 74 76 75 71 68 67 66 65 65 66 66 72 76 82 80 74 71 71 66 64 63 63 62
66 67 62 56 56 56 56 57 58 56 54 54 53 54 53 49 51 53 56 62 69 69 69 65 63 63 62 61 62 62 67 72 77 76 71 64 61 56 51 50 51 49 49
68 64 58 57 57 58 57 56 55 54 55 54 51 49 49 46 47 48 51 56 64 67 64 62 60 58 58 59 60 62 67 69 68 65 66 66 61 53 49 46 45 44 44
65 60 57 58 58 57 56 54 53 54 54 51 46 44 45 43 44 43 46 52 58 61 58 58 57 56 56 57 58 58 62 60 59 57 59 61 54 44 39 39 37 36 38
61 59 59 59 58 58 59 57 55 53 50 47 41 39 40 39 39 41 42 46 52 55 55 53 53 53 52 51 51 54 54 54 52 52 53 52 46 39 32 29 28 29 29
61 60 60 60 60 61 58 55 54 51 47 42 38 35 35 35 37 38 39 42 44 48 48 47 47 45 44 46 46 48 48 51 50 51 49 48 41 35 30 24 20 19 19
61 60 61 61 60 60 58 56 52 48 44 38 35 31 32 32 34 36 37 39 41 40 40 40 39 39 39 41 43 44 44 47 45 47 47 42 35 30 28 26 23 20 16
60 61 61 61 58 56 54 48 43 42 38 34 33 29 29 31 34 33 32 33 35 33 32 34 34 35 37 38 41 42 41 44 43 42 40 38 36 33 30 27 25 24 23
62 62 61 57 52 48 44 41 40 38 33 32 31 28 28 30 31 31 31 32 30 29 31 31 33 34 34 38 41 41 39 43 41 39 39 38 36 34 32 31 30 29 27
62 60 57 50 45 42 41 39 37 35 32 32 29 28 28 26 27 30 34 32 30 31 31 31 32 33 35 38 42 40 40 40 41 41 40 39 39 35 33 32 32 32 32
57 52 49 46 43 40 39 36 35 33 33 31 29 29 28 26 28 32 33 30 31 30 29 31 31 31 32 38 40 39 39 41 42 41 40 40 40 38 38 37 37 37 36
50 46 47 46 45 41 42 36 34 33 33 32 31 31 30 28 30 31 29 30 29 27 29 29 29 29 34 39 40 42 42 43 44 43 43 43 43 43 43 42 41 40 40
50 49 49 47 46 41 40 37 35 35 34 33 33 34 33 32 32 31 30 31 29 27 28 28 28 29 35 41 44 45 45 46 47 47 46 45 46 46 47 46 45 44 44
Wind_Direction
313 306 286 261 245 245 245 239 237 235 237 240 243 246 246 248 250 252 252 250 251 252 252 251 250 251 252 253 256 259 256 256 257 254 248 247 248 248 247 246 246 245 245
318 309 295 278 260 249 243 247 246 242 239 238 241 243 245 247 248 251 252 252 252 253 253 251 249 251 253 255 258 262 265 260 256 255 254 249 251 251 249 249 249 249 249
330 321 303 287 272 260 251 247 245 246 246 245 246 247 245 245 246 247 252 253 253 254 255 253 251 252 253 257 259 262 265 266 263 261 260 258 255 252 253 253 252 252 252
322 322 310 292 278 269 258 250 247 246 245 245 249 248 249 247 250 250 250 252 252 253 255 255 254 254 256 260 262 263 266 269 270 267 263 260 257 257 256 256 255 254 254
320 317 308 303 290 276 268 254 253 248 248 247 247 249 250 253 252 252 251 250 250 251 255 255 255 256 258 261 263 265 267 270 271 272 267 265 264 261 258 257 257 258 257
304 315 309 304 295 289 278 266 259 251 250 249 249 249 250 252 252 252 251 249 250 250 251 254 254 256 259 262 264 266 269 268 270 272 270 268 267 264 261 258 259 259 261
305 304 304 301 296 292 284 276 267 262 252 249 248 248 249 248 249 252 254 252 252 254 253 254 256 257 259 262 264 265 268 271 272 271 271 269 268 265 263 262 261 262 263
301 299 301 301 292 291 285 281 274 266 260 253 248 247 249 250 250 250 250 251 253 252 251 254 257 258 260 261 264 267 270 272 272 270 270 269 267 266 265 264 264 264 264
298 297 299 300 293 295 287 279 278 272 264 259 256 249 245 246 247 250 251 251 251 252 253 254 255 257 260 263 266 270 272 273 273 273 271 270 270 269 268 266 266 266 266
291 297 297 297 295 292 283 279 277 274 268 262 257 253 248 246 245 246 248 249 249 251 254 256 258 261 264 268 269 271 273 275 273 274 274 274 273 272 272 271 270 269 268
290 290 292 291 296 292 286 279 275 273 270 265 259 256 254 249 245 244 245 247 250 252 254 256 259 263 265 266 269 274 276 276 276 276 277 276 276 277 277 276 275 275 273
291 287 292 289 292 287 285 283 280 275 270 269 267 261 258 257 253 248 245 244 248 251 254 255 258 262 264 267 271 275 277 277 279 281 280 282 284 283 280 278 275 272 271
286 285 288 286 288 285 285 284 281 278 274 270 268 268 262 258 258 254 249 245 246 249 253 256 257 260 264 267 272 275 277 281 282 286 287 289 289 285 281 277 272 270 267
282 283 284 284 286 285 283 284 284 282 279 278 273 270 264 260 258 259 255 250 247 248 252 254 257 260 263 267 272 276 280 282 287 290 293 296 295 290 285 280 276 272 266
281 280 281 283 283 282 284 285 285 281 281 280 276 272 268 260 257 255 252 246 246 246 248 252 256 260 263 267 272 277 281 286 290 293 299 304 305 296 288 283 278 271 267
281 279 281 283 284 286 286 286 283 281 281 279 274 272 268 261 258 256 254 248 244 245 248 251 255 260 264 267 273 278 283 288 290 297 307 314 313 303 296 289 283 276 268
280 280 282 285 287 289 288 287 283 282 281 279 274 269 264 259 258 253 251 247 243 244 247 251 256 260 264 269 274 280 284 287 291 302 309 314 319 309 296 287 284 277 271
280 281 285 288 289 289 291 288 282 280 277 275 269 262 259 257 255 250 247 244 242 243 246 251 255 260 264 269 275 279 282 285 293 302 309 314 318 320 310 300 286 279 273
280 281 287 290 289 289 288 284 283 280 275 270 263 257 254 253 248 247 243 239 238 240 244 249 254 260 265 270 273 277 281 285 296 303 309 311 315 325 331 333 330 311 294
279 282 284 286 288 289 287 285 283 278 272 263 256 252 251 245 241 241 239 235 233 237 241 248 253 260 263 268 272 276 279 286 295 303 309 310 313 321 326 332 339 341 338
279 280 283 286 288 288 286 284 280 274 266 255 249 246 244 240 237 236 232 227 226 231 238 245 252 256 264 270 270 272 278 286 297 304 309 315 319 320 322 322 324 325 326
279 280 283 285 285 282 278 279 277 270 256 246 242 239 236 236 234 227 216 216 221 229 237 247 254 259 264 266 266 270 279 288 295 302 308 313 316 320 320 319 320 320 321
278 281 282 280 278 277 276 278 273 261 245 238 235 232 230 226 225 216 214 218 224 232 243 249 253 259 266 261 265 270 280 287 293 301 306 312 316 316 317 317 314 314 314
279 278 276 275 274 274 274 273 265 250 239 233 229 226 222 216 215 216 218 221 230 237 240 248 258 266 263 261 266 274 280 286 291 297 302 307 313 315 315 316 315 310 307
274 272 271 272 271 273 269 263 257 244 234 229 223 221 216 209 211 216 219 223 226 233 244 254 263 265 258 263 267 273 277 281 288 293 296 301 305 308 311 310 309 307 306
271 270 269 269 270 268 261 251 248 241 229 224 219 215 215 212 214 214 216 220 226 237 249 260 268 267 261 262 267 272 278 281 285 289 293 297 299 302 303 306 306 304 302